Time,TemperatureF,DewpointF,PressureIn,WindDirection,WindDirectionDegrees,WindSpeedMPH,WindSpeedGustMPH,Humidity,HourlyPrecipIn,Conditions,Clouds,dailyrainin,SoftwareType,DateUTC
2013-03-27 00:02:00,54.0,51.0,29.93,SE,134,0.0,3.0,91,0.00,,,0.00,,2013-03-27 07:02:00,
2013-03-27 00:12:00,54.0,51.0,29.93,SE,134,0.0,3.0,91,0.00,,,0.00,,2013-03-27 07:12:00,
2013-03-27 00:22:00,54.0,51.0,29.93,SE,134,0.0,1.0,91,0.00,,,0.00,,2013-03-27 07:22:00,
2013-03-27 00:32:00,55.0,52.0,29.93,SE,134,0.0,1.0,91,0.00,,,0.00,,2013-03-27 07:32:00,
2013-03-27 00:42:00,55.0,52.0,29.93,SE,134,0.0,1.0,91,0.00,,,0.00,,2013-03-27 07:42:00,
2013-03-27 00:53:00,55.0,52.0,29.93,SE,134,0.0,2.0,90,0.00,,,0.00,,2013-03-27 07:53:00,
2013-03-27 01:02:00,55.0,52.0,29.92,SE,134,0.0,2.0,90,0.00,,,0.00,,2013-03-27 08:02:00,
2013-03-27 01:11:00,55.0,52.0,29.92,SE,134,0.0,2.0,90,0.00,,,0.00,,2013-03-27 08:11:00,
2013-03-27 01:22:00,55.0,52.0,29.92,ESE,112,0.0,3.0,90,0.00,,,0.00,,2013-03-27 08:22:00,
2013-03-27 01:32:00,55.0,52.0,29.91,ESE,112,1.0,3.0,89,0.00,,,0.00,,2013-03-27 08:32:00,
2013-03-27 01:42:00,55.0,52.0,29.91,ESE,112,1.0,3.0,89,0.00,,,0.00,,2013-03-27 08:42:00,
2013-03-27 01:52:00,55.0,52.0,29.91,ESE,112,1.0,2.0,90,0.00,,,0.00,,2013-03-27 08:52:00,
2013-03-27 02:01:00,54.0,51.0,29.91,SSE,148,1.0,4.0,90,0.00,,,0.00,,2013-03-27 09:01:00,
2013-03-27 02:11:00,54.0,51.0,29.91,SSE,148,1.0,4.0,90,0.00,,,0.00,,2013-03-27 09:11:00,
2013-03-27 02:22:00,54.0,51.0,29.91,SE,142,0.0,3.0,90,0.00,,,0.00,,2013-03-27 09:22:00,
2013-03-27 02:32:00,54.0,51.0,29.91,ESE,112,2.0,5.0,89,0.00,,,0.00,,2013-03-27 09:32:00,
2013-03-27 02:42:00,54.0,51.0,29.91,ESE,112,2.0,5.0,89,0.00,,,0.00,,2013-03-27 09:42:00,
2013-03-27 02:52:00,54.0,51.0,29.90,ESE,103,1.0,7.0,89,0.00,,,0.00,,2013-03-27 09:52:00,
2013-03-27 03:02:00,54.0,51.0,29.90,ESE,117,3.0,7.0,89,0.00,,,0.00,,2013-03-27 10:02:00,
2013-03-27 03:12:00,54.0,51.0,29.90,ESE,117,3.0,7.0,89,0.00,,,0.00,,2013-03-27 10:12:00,
2013-03-27 03:22:00,54.0,51.0,29.90,ESE,122,2.0,7.0,89,0.00,,,0.00,,2013-03-27 10:22:00,
2013-03-27 03:32:00,54.0,51.0,29.89,ESE,105,3.0,5.0,89,0.00,,,0.00,,2013-03-27 10:32:00,
2013-03-27 03:42:00,54.0,51.0,29.89,ESE,105,3.0,5.0,89,0.00,,,0.00,,2013-03-27 10:42:00,
2013-03-27 03:52:00,54.0,51.0,29.89,ESE,116,2.0,4.0,89,0.00,,,0.00,,2013-03-27 10:52:00,
2013-03-27 04:02:00,54.0,51.0,29.89,SE,129,0.0,5.0,89,0.00,,,0.00,,2013-03-27 11:02:00,
2013-03-27 04:11:00,54.0,51.0,29.89,SE,129,0.0,5.0,89,0.00,,,0.00,,2013-03-27 11:11:00,
2013-03-27 04:22:00,54.0,51.0,29.89,SSE,155,2.0,7.0,88,0.00,,,0.00,,2013-03-27 11:22:00,
2013-03-27 04:32:00,53.0,50.0,29.90,SE,128,1.0,4.0,88,0.00,,,0.00,,2013-03-27 11:32:00,
2013-03-27 04:42:00,53.0,50.0,29.90,SE,128,1.0,4.0,88,0.00,,,0.00,,2013-03-27 11:42:00,
2013-03-27 04:52:00,53.0,50.0,29.90,ESE,119,0.0,7.0,88,0.00,,,0.00,,2013-03-27 11:52:00,
2013-03-27 05:02:00,53.0,50.0,29.89,ESE,119,0.0,3.0,88,0.00,,,0.00,,2013-03-27 12:02:00,
2013-03-27 05:11:00,53.0,50.0,29.89,ESE,119,0.0,3.0,88,0.00,,,0.00,,2013-03-27 12:11:00,
2013-03-27 05:22:00,53.0,50.0,29.90,ESE,119,1.0,4.0,88,0.00,,,0.00,,2013-03-27 12:22:00,
2013-03-27 05:32:00,53.0,50.0,29.90,ESE,119,1.0,4.0,88,0.00,,,0.00,,2013-03-27 12:32:00,
2013-03-27 05:42:00,53.0,50.0,29.90,ESE,119,1.0,4.0,88,0.00,,,0.00,,2013-03-27 12:42:00,
2013-03-27 05:52:00,53.0,50.0,29.90,ESE,119,0.0,3.0,88,0.00,,,0.00,,2013-03-27 12:52:00,
2013-03-27 06:01:00,53.0,50.0,29.91,ESE,118,0.0,2.0,88,0.00,,,0.00,,2013-03-27 13:01:00,
2013-03-27 06:12:00,53.0,50.0,29.91,ESE,118,0.0,2.0,88,0.00,,,0.00,,2013-03-27 13:12:00,
2013-03-27 06:22:00,53.0,50.0,29.91,ESE,118,0.0,2.0,88,0.00,,,0.00,,2013-03-27 13:22:00,
2013-03-27 06:32:00,53.0,50.0,29.91,ESE,117,1.0,3.0,88,0.00,,,0.00,,2013-03-27 13:32:00,
2013-03-27 06:42:00,53.0,50.0,29.91,ESE,117,1.0,3.0,88,0.00,,,0.00,,2013-03-27 13:42:00,
2013-03-27 06:53:00,53.0,50.0,29.92,East,96,2.0,5.0,88,0.00,,,0.00,,2013-03-27 13:53:00,
2013-03-27 07:01:00,53.0,50.0,29.92,East,97,0.0,3.0,88,0.00,,,0.00,,2013-03-27 14:01:00,
2013-03-27 07:11:00,53.0,50.0,29.92,East,97,0.0,3.0,88,0.00,,,0.00,,2013-03-27 14:11:00,
2013-03-27 07:22:00,54.0,51.0,29.93,East,94,1.0,2.0,88,0.00,,,0.00,,2013-03-27 14:22:00,
2013-03-27 07:32:00,54.0,50.0,29.93,NE,49,2.0,4.0,87,0.00,,,0.00,,2013-03-27 14:32:00,
2013-03-27 07:52:00,54.0,50.0,29.94,NE,48,0.0,5.0,87,0.00,,,0.00,,2013-03-27 14:52:00,
2013-03-27 08:02:00,54.0,50.0,29.94,NE,46,2.0,7.0,87,0.00,,,0.00,,2013-03-27 15:02:00,
2013-03-27 08:11:00,54.0,50.0,29.94,NE,46,2.0,7.0,87,0.00,,,0.00,,2013-03-27 15:11:00,
2013-03-27 08:22:00,54.0,50.0,29.95,ENE,59,1.0,7.0,86,0.00,,,0.00,,2013-03-27 15:22:00,
2013-03-27 08:32:00,55.0,51.0,29.95,East,88,2.0,5.0,86,0.00,,,0.00,,2013-03-27 15:32:00,
2013-03-27 08:42:00,55.0,51.0,29.95,East,88,2.0,5.0,86,0.00,,,0.00,,2013-03-27 15:42:00,
2013-03-27 08:52:00,55.0,50.0,29.95,ENE,70,1.0,5.0,84,0.00,,,0.00,,2013-03-27 15:52:00,
2013-03-27 09:02:00,56.0,51.0,29.95,East,83,3.0,6.0,83,0.00,,,0.00,,2013-03-27 16:02:00,
2013-03-27 09:12:00,56.0,51.0,29.95,East,83,3.0,6.0,83,0.00,,,0.00,,2013-03-27 16:12:00,
2013-03-27 09:22:00,56.0,51.0,29.95,East,98,3.0,6.0,82,0.00,,,0.00,,2013-03-27 16:22:00,
2013-03-27 09:32:00,56.0,51.0,29.95,ESE,115,3.0,6.0,82,0.00,,,0.00,,2013-03-27 16:32:00,
2013-03-27 09:42:00,56.0,51.0,29.95,ESE,115,3.0,6.0,82,0.00,,,0.00,,2013-03-27 16:42:00,
2013-03-27 09:52:00,57.0,51.0,29.96,SW,214,5.0,10.0,80,0.00,,,0.00,,2013-03-27 16:52:00,
2013-03-27 10:02:00,57.0,51.0,29.96,SE,140,5.0,8.0,81,0.00,,,0.00,,2013-03-27 17:02:00,
2013-03-27 10:11:00,57.0,51.0,29.96,SE,140,5.0,8.0,81,0.00,,,0.00,,2013-03-27 17:11:00,
2013-03-27 10:22:00,57.0,51.0,29.96,ESE,105,1.0,7.0,80,0.00,,,0.00,,2013-03-27 17:22:00,
2013-03-27 10:32:00,58.0,52.0,29.96,SSE,164,3.0,9.0,79,0.00,,,0.00,,2013-03-27 17:32:00,
2013-03-27 10:44:00,58.0,52.0,29.96,SSE,164,3.0,9.0,79,0.00,,,0.00,,2013-03-27 17:44:00,
2013-03-27 10:52:00,58.0,51.0,29.96,SSW,194,3.0,8.0,77,0.00,,,0.00,,2013-03-27 17:52:00,
2013-03-27 11:02:00,59.0,52.0,29.97,South,178,5.0,12.0,77,0.00,,,0.00,,2013-03-27 18:02:00,
2013-03-27 11:12:00,59.0,52.0,29.97,South,178,5.0,12.0,77,0.00,,,0.00,,2013-03-27 18:12:00,
2013-03-27 11:22:00,60.0,52.0,29.97,SW,236,4.0,14.0,75,0.00,,,0.00,,2013-03-27 18:22:00,
2013-03-27 11:32:00,61.0,52.0,29.97,South,188,4.0,10.0,73,0.00,,,0.00,,2013-03-27 18:32:00,
2013-03-27 11:42:00,61.0,52.0,29.97,South,188,4.0,10.0,73,0.00,,,0.00,,2013-03-27 18:42:00,
2013-03-27 11:53:00,62.0,53.0,29.97,SW,215,5.0,10.0,72,0.00,,,0.00,,2013-03-27 18:53:00,
2013-03-27 12:02:00,61.0,53.0,29.97,SSE,167,3.0,10.0,75,0.00,,,0.00,,2013-03-27 19:02:00,
2013-03-27 12:11:00,61.0,53.0,29.97,SSE,167,3.0,10.0,75,0.00,,,0.00,,2013-03-27 19:11:00,
2013-03-27 12:21:00,63.0,53.0,29.97,SSW,199,3.0,10.0,70,0.00,,,0.00,,2013-03-27 19:21:00,
2013-03-27 12:32:00,62.0,53.0,29.96,SSW,207,5.0,10.0,72,0.00,,,0.00,,2013-03-27 19:32:00,
2013-03-27 12:42:00,62.0,53.0,29.96,SSW,207,5.0,10.0,72,0.00,,,0.00,,2013-03-27 19:42:00,
2013-03-27 12:52:00,62.0,53.0,29.96,SSE,168,6.0,9.0,73,0.00,,,0.00,,2013-03-27 19:52:00,
2013-03-27 13:02:00,62.0,53.0,29.96,SSE,167,5.0,10.0,73,0.00,,,0.00,,2013-03-27 20:02:00,
2013-03-27 13:11:00,62.0,53.0,29.96,SSE,167,5.0,10.0,73,0.00,,,0.00,,2013-03-27 20:11:00,
2013-03-27 13:22:00,62.0,52.0,29.96,SSW,210,6.0,12.0,71,0.00,,,0.00,,2013-03-27 20:22:00,
2013-03-27 13:31:00,62.0,52.0,29.96,SW,220,6.0,12.0,70,0.00,,,0.00,,2013-03-27 20:31:00,
2013-03-27 13:42:00,62.0,52.0,29.96,SW,220,6.0,12.0,70,0.00,,,0.00,,2013-03-27 20:42:00,
2013-03-27 13:52:00,61.0,52.0,29.96,SSW,213,7.0,12.0,73,0.00,,,0.00,,2013-03-27 20:52:00,
2013-03-27 14:01:00,63.0,53.0,29.96,South,188,5.0,10.0,70,0.00,,,0.00,,2013-03-27 21:01:00,
2013-03-27 14:12:00,63.0,53.0,29.96,South,188,5.0,10.0,70,0.00,,,0.00,,2013-03-27 21:12:00,
2013-03-27 14:22:00,63.0,53.0,29.95,South,173,6.0,11.0,69,0.00,,,0.00,,2013-03-27 21:22:00,
2013-03-27 14:32:00,63.0,53.0,29.95,WSW,250,6.0,13.0,70,0.00,,,0.00,,2013-03-27 21:32:00,
2013-03-27 14:42:00,63.0,53.0,29.95,WSW,250,6.0,13.0,70,0.00,,,0.00,,2013-03-27 21:42:00,
2013-03-27 14:52:00,61.0,51.0,29.95,South,170,8.0,13.0,70,0.00,,,0.00,,2013-03-27 21:52:00,
2013-03-27 15:02:00,62.0,53.0,29.95,South,178,6.0,12.0,73,0.00,,,0.00,,2013-03-27 22:02:00,
2013-03-27 15:12:00,62.0,53.0,29.95,South,178,6.0,12.0,73,0.00,,,0.00,,2013-03-27 22:12:00,
2013-03-27 15:23:00,63.0,53.0,29.95,WSW,258,5.0,9.0,70,0.00,,,0.00,,2013-03-27 22:23:00,
2013-03-27 15:32:00,62.0,53.0,29.94,WSW,246,2.0,10.0,73,0.00,,,0.00,,2013-03-27 22:32:00,
2013-03-27 15:42:00,62.0,53.0,29.94,WSW,246,2.0,10.0,73,0.00,,,0.00,,2013-03-27 22:42:00,
2013-03-27 15:52:00,62.0,53.0,29.94,SW,221,2.0,13.0,73,0.00,,,0.00,,2013-03-27 22:52:00,
2013-03-27 16:02:00,61.0,53.0,29.94,SW,226,5.0,10.0,74,0.00,,,0.00,,2013-03-27 23:02:00,
2013-03-27 16:11:00,61.0,53.0,29.94,SW,226,5.0,10.0,74,0.00,,,0.00,,2013-03-27 23:11:00,
2013-03-27 16:22:00,63.0,54.0,29.93,SW,232,4.0,10.0,72,0.00,,,0.00,,2013-03-27 23:22:00,
2013-03-27 16:32:00,61.0,53.0,29.93,SW,228,4.0,8.0,74,0.00,,,0.00,,2013-03-27 23:32:00,
2013-03-27 16:42:00,61.0,53.0,29.93,SW,228,4.0,8.0,74,0.00,,,0.00,,2013-03-27 23:42:00,
2013-03-27 16:52:00,61.0,52.0,29.93,SW,215,4.0,8.0,72,0.00,,,0.00,,2013-03-27 23:52:00,
2013-03-27 17:01:00,60.0,53.0,29.93,South,190,5.0,11.0,77,0.00,,,0.00,,2013-03-28 00:01:00,
2013-03-27 17:12:00,60.0,53.0,29.93,South,190,5.0,11.0,77,0.00,,,0.00,,2013-03-28 00:12:00,
2013-03-27 17:22:00,59.0,53.0,29.94,SW,221,6.0,13.0,80,0.00,,,0.00,,2013-03-28 00:22:00,
2013-03-27 17:32:00,58.0,53.0,29.94,South,190,4.0,8.0,82,0.00,,,0.00,,2013-03-28 00:32:00,
2013-03-27 17:42:00,58.0,53.0,29.94,South,190,4.0,8.0,82,0.00,,,0.00,,2013-03-28 00:42:00,
2013-03-27 17:52:00,58.0,53.0,29.95,SW,224,2.0,8.0,82,0.00,,,0.00,,2013-03-28 00:52:00,
2013-03-27 18:01:00,57.0,52.0,29.95,SW,217,4.0,7.0,84,0.00,,,0.00,,2013-03-28 01:01:00,
2013-03-27 18:11:00,57.0,52.0,29.95,SW,217,4.0,7.0,84,0.00,,,0.00,,2013-03-28 01:11:00,
2013-03-27 18:22:00,57.0,52.0,29.95,South,184,2.0,7.0,84,0.00,,,0.00,,2013-03-28 01:22:00,
2013-03-27 18:32:00,56.0,51.0,29.95,SSW,200,3.0,7.0,84,0.00,,,0.00,,2013-03-28 01:32:00,
2013-03-27 18:42:00,56.0,51.0,29.95,SSW,200,3.0,7.0,84,0.00,,,0.00,,2013-03-28 01:42:00,
2013-03-27 18:52:00,56.0,52.0,29.96,SSW,213,2.0,5.0,86,0.00,,,0.00,,2013-03-28 01:52:00,
2013-03-27 19:02:00,56.0,52.0,29.96,SW,217,1.0,5.0,87,0.00,,,0.00,,2013-03-28 02:02:00,
2013-03-27 19:12:00,56.0,52.0,29.96,SW,217,1.0,5.0,87,0.00,,,0.00,,2013-03-28 02:12:00,
2013-03-27 19:22:00,55.0,51.0,29.96,South,186,1.0,3.0,87,0.00,,,0.00,,2013-03-28 02:22:00,
2013-03-27 19:32:00,55.0,51.0,29.96,SW,224,1.0,4.0,87,0.00,,,0.00,,2013-03-28 02:32:00,
2013-03-27 19:42:00,55.0,51.0,29.96,SW,224,1.0,4.0,87,0.00,,,0.00,,2013-03-28 02:42:00,
2013-03-27 19:52:00,55.0,51.0,29.96,SW,224,1.0,4.0,87,0.00,,,0.00,,2013-03-28 02:52:00,
2013-03-27 20:02:00,55.0,51.0,29.96,SW,227,0.0,2.0,86,0.00,,,0.00,,2013-03-28 03:02:00,
2013-03-27 20:12:00,55.0,51.0,29.96,SW,227,0.0,2.0,86,0.00,,,0.00,,2013-03-28 03:12:00,
2013-03-27 20:22:00,55.0,51.0,29.97,SW,227,0.0,1.0,87,0.00,,,0.00,,2013-03-28 03:22:00,
2013-03-27 20:32:00,55.0,52.0,29.97,SW,227,0.0,2.0,88,0.00,,,0.00,,2013-03-28 03:32:00,
2013-03-27 20:42:00,55.0,52.0,29.97,SW,227,0.0,2.0,88,0.00,,,0.00,,2013-03-28 03:42:00,
2013-03-27 20:53:00,55.0,52.0,29.97,SW,227,0.0,2.0,88,0.00,,,0.00,,2013-03-28 03:53:00,
2013-03-27 21:02:00,54.0,51.0,29.98,SW,227,0.0,1.0,88,0.00,,,0.00,,2013-03-28 04:02:00,
2013-03-27 21:12:00,54.0,51.0,29.98,SW,227,0.0,1.0,88,0.00,,,0.00,,2013-03-28 04:12:00,
2013-03-27 21:22:00,54.0,51.0,29.99,SW,231,0.0,3.0,90,0.00,,,0.00,,2013-03-28 04:22:00,
2013-03-27 21:32:00,54.0,51.0,29.99,SW,232,0.0,3.0,89,0.00,,,0.00,,2013-03-28 04:32:00,
2013-03-27 21:42:00,54.0,51.0,29.99,SW,232,0.0,3.0,89,0.00,,,0.00,,2013-03-28 04:42:00,
2013-03-27 21:52:00,54.0,51.0,30.00,SW,232,0.0,1.0,90,0.00,,,0.00,,2013-03-28 04:52:00,
2013-03-27 22:02:00,54.0,51.0,30.00,SSE,147,1.0,3.0,90,0.00,,,0.00,,2013-03-28 05:02:00,
2013-03-27 22:12:00,54.0,51.0,30.00,SSE,147,1.0,3.0,90,0.00,,,0.00,,2013-03-28 05:12:00,
2013-03-27 22:22:00,54.0,51.0,30.01,SE,128,0.0,1.0,91,0.00,,,0.00,,2013-03-28 05:22:00,
2013-03-27 22:31:00,54.0,51.0,30.01,ESE,121,0.0,4.0,91,0.00,,,0.00,,2013-03-28 05:31:00,
2013-03-27 22:42:00,54.0,51.0,30.01,ESE,121,0.0,4.0,91,0.00,,,0.00,,2013-03-28 05:42:00,
2013-03-27 22:52:00,54.0,51.0,30.00,SSE,153,1.0,5.0,91,0.00,,,0.00,,2013-03-28 05:52:00,
2013-03-27 23:01:00,53.0,51.0,30.01,SE,124,2.0,5.0,92,0.00,,,0.00,,2013-03-28 06:01:00,
2013-03-27 23:12:00,53.0,51.0,30.01,SE,124,2.0,5.0,92,0.00,,,0.00,,2013-03-28 06:12:00,
2013-03-27 23:22:00,53.0,51.0,30.01,South,188,1.0,4.0,92,0.00,,,0.00,,2013-03-28 06:22:00,
2013-03-27 23:32:00,53.0,51.0,30.01,ESE,119,1.0,5.0,92,0.00,,,0.00,,2013-03-28 06:32:00,
2013-03-27 23:42:00,53.0,51.0,30.01,ESE,119,1.0,5.0,92,0.00,,,0.00,,2013-03-28 06:42:00,
2013-03-27 23:52:00,53.0,51.0,30.00,SE,135,0.0,3.0,93,0.00,,,0.00,,2013-03-28 06:52:00,